Regional Weather Roundup
Issued by NWS Charleston, SC

Current Version | Previous Version | Text Only | Print | Product List | Glossary On
Versions: 1 2 3 4 5 6 7 8 9 10 11 12 13 14 15 16 17 18 19 20 21 22 23 24 25 26 27 28 29 30 31 32 33 34 35 36 37 38 39 40 41 42 43 44 45 46 47 48 49 50
184
ASUS42 KCHS 221412
RWRCHS

REGIONAL WEATHER ROUNDUP
NATIONAL WEATHER SERVICE CHARLESTON SC
1000 AM EDT SUN OCT 22 2017

NOTE: "FAIR" INDICATES FEW OR NO CLOUDS BELOW 12,000 FEET WITH NO
SIGNIFICANT WEATHER AND/OR OBSTRUCTIONS TO VISIBILITY.

NOT ALL STATIONS ARE QUALITY CONTROLLED. USE DATA WITH CAUTION...
ESPECIALLY DEWPOINT OBSERVATIONS.

SCZ027-030-031-034>040-042>050-221500-
...SOUTHEAST SOUTH CAROLINA...

CITY           SKY/WX    TMP DP  RH WIND       PRES   REMARKS
N CHARLESTON   CLOUDY    73  68  84 NE9       30.29R
WATERFRONT PRK NOT AVBL
JOHNS ISLAND   CLOUDY    73  68  83 NE9       30.28S
PINOPOLIS        N/A     70  68  94 E7        30.22R
MONCKS CORNER  FAIR      70  68  94 E8        30.30R
SUMMERVILLE    CLOUDY    72  66  83 CALM      30.30S
BEAUFORT MCAS  CLOUDY    73  68  84 MISG      30.27R
BEAUFORT ARPT  CLOUDY    72  66  83 E7        30.26S
HILTON HEAD IS DRIZZLE   73  68  83 NE9       30.27R
WALTERBORO     CLOUDY    70  64  83 E8        30.30R
ALLENDALE        N/A     70  66  88 CALM        N/A

...SOUTHERN MIDLANDS AND PEE DEE...

CITY           SKY/WX    TMP DP  RH WIND       PRES   REMARKS
GEORGETOWN     CLOUDY    72  72 100 NE7       30.32S
KINGSTREE      FAIR      70  64  83 E6        30.32S
ORANGEBURG     MOSUNNY   69  64  84 E7        30.31R
BARNWELL         N/A     72  66  83 E8        30.30S
AIKEN          FAIR      68  61  77 E7        30.34S
MANNING        FAIR      70  45  40 MISG      30.31S
COLUMBIA       MOSUNNY   69  62  78 E3        30.32R
SUMTER         SUNNY     68  61  78 E5        30.31R
FLORENCE       SUNNY     66  62  87 E8        30.34S
MYRTLE BEACH   MOSUNNY   73  67  81 E13       30.33S
N MYRTLE BEACH MOSUNNY   73  66  78 E12       30.32S

$$

GAZ063-065-086>088-099>101-113>116-118-119-134>141-150-221500-
...SOUTHEAST GEORGIA...

CITY           SKY/WX    TMP DP  RH WIND       PRES   REMARKS
SAVANNAH ARPT  PTSUNNY   73  68  84 E7        30.26R
HUNTER AAF     DRIZZLE   72  69  88 E8        30.23R
FORT STEWART   CLOUDY    72  66  83 CALM      30.23S
STATESBORO     MOSUNNY   74  61  64 E6        30.27S
SYLVANIA       MOSUNNY   73  68  83 E9        30.28F
CLAXTON        FAIR      75  67  77 NE6       30.26S

...CSRA...CENTRAL AND FAR SOUTHEAST GEORGIA...

CITY           SKY/WX    TMP DP  RH WIND       PRES   REMARKS
THOMSON        MOSUNNY   70  63  79 SE10      30.34S
AUGUSTA-BUSH   MOSUNNY   72  65  78 SE5       30.29S
AUGUSTA-DANIEL SUNNY     72  63  73 E9        30.31R
SWAINSBORO     CLOUDY    72  64  78 MISG      30.28R
VIDALIA        SUNNY     73  68  83 E9        30.25S
EASTMAN        PTSUNNY   74  58  57 E7        30.26F
HAZLEHURST     FAIR      75  63  65 E5        30.23S
ALMA           MOSUNNY   73  68  84 VRB5      30.24R
WAYCROSS       MOSUNNY   73  70  91 E6        30.23S
JESUP          NOT AVBL
BAXLEY         FAIR      72  72 100 E5        30.24R
BRUNSWICK      CLOUDY    77  70  78 E10       30.24R
SAINT SIMONS   MOSUNNY   78  73  84 NE13      30.22R

$$

SCZ027-028-034-036>038-045-046-048>050-GAZ119-141-221500-
...LAKE AND SUPPLEMENTAL COASTAL OBSERVATIONS...

STATION/POSITION TIME  TEMP    WIND        PRES    WAVE   SWELL
                       AIR SEA DIR/SP/G            HT/PER HT/PER/DIR
                 (UTC) (F)     (DEG/KT/KT) (MB)    (FT/S) (FT/S/D)
WINYAH BAY       1245   73      50/  8     1026.0
LAKE MURRAY      1320   66      80/  2/  5 1026.1
ACE BASIN NERRS  1245   69      20/  1     1025.0
FORT PULASKI     1342   73 73   80/ 14/ 17 1025.2R
SAPELO ISLAND    NOT AVBL

$$

ANZ835-935-AMZ111-154-330-350-352-354-370-450-454-472-221500-
...C-MAN AND BUOY OBSERVATIONS...

STATION/POSITION TIME  TEMP    WIND        PRES    WAVE   SWELL
                       AIR SEA DIR/SP/G            HT/PER HT/PER/DIR
                 (UTC) (F)     (DEG/KT/KT) (MB)    (FT/S) (FT/S/D)
BUOY 41004       1350   79 79   90/ 16/ 19 1024.6R   5/ 8   2/110/ 8
BUOY 41008       1250   74 77   80/ 14/ 16 1022.9    5/ 7   3/130/ 7
FOLLY BEACH CMAN 1300   72      40/ 11/ 14 1025.8R
CAPERS NEARSHORE 1308   70 73   50/ 12/ 16 1025.1R
FRIPP NEARSHORE  1308   74      50/ 14/ 17   N/A


STATION/POSITION TIME  TEMP    WIND        PRES    WAVE   SWELL
                       AIR SEA DIR/SP/G            HT/PER HT/PER/DIR
                 (UTC) (F)     (DEG/KT/KT) (MB)    (FT/S) (FT/S/D)
5E ST. MARYS GA  1330      77                N/A     5/ 7
FRYING PAN BUOY  1350   76 76   90/ 10/ 12 1026.7R   3/ 8   3/110/ 8
BUOY 41025       1350   76 81   70/  6/ 10 1028.1R   3/ 8   2/130/ 8
CAPE LOOKOUT NC  1300   70      10/  6/  8 1027.4R
BUOY 41002       1350   77 80  100/ 12/ 14 1026.3R   4/ 8   3/ 90/ 8
BUOY 41010       NOT AVBL
ST AUGUSTINE FL  1400   78 77   90/ 11/ 14 1022.7R


$$




USA.gov is the U.S. government's official web portal to all federal, state and local government web resources and services.